FW1481 Weather Reports


time (UTC)temp
C
wind
direction
speed
KPH
gust
KPH
rain 1hr
cm
rain 24hr
cm
rain mn
cm
humidity
%
barometer
mb
20260906104506 18 125 0.0 4.8 0.00 0.00 0.00 100 1017.1
20260906103030 18 122 1.6 4.8 0.00 0.00 0.00 100 1017.3
20260906101518 18 118 0.0 6.4 0.00 0.00 0.00 100 1017.3
20260906100032 19 122 3.2 11.3 0.00 0.00 0.00 100 1017.0
20260906094601 19 116 3.2 6.4 0.00 0.00 0.00 100 1016.7
20260906093033 19 135 3.2 9.7 0.00 0.00 0.00 100 1016.6
20260906091546 20 141 1.6 9.7 0.00 0.00 0.00 100 1016.4
20260906090037 20 136 3.2 6.4 0.00 0.00 0.00 100 1016.6
20260906084612 20 122 0.0 9.7 0.00 0.00 0.00 100 1016.5
20260906083040 20 122 1.6 12.9 0.00 0.00 0.00 100 1016.4
20260906081554 20 122 1.6 14.5 0.00 0.00 0.00 100 1016.4
20260906080013 20 139 4.8 12.9 0.00 0.00 0.00 100 1016.4
20260906074542 20 101 1.6 6.4 0.00 0.00 0.00 100 1016.4
20260906073002 20 133 1.6 11.3 0.00 0.00 0.00 100 1016.5
20260906071530 20 128 4.8 12.9 0.00 0.00 0.00 100 1016.7
20260906070005 20 165 3.2 9.7 0.00 0.00 0.00 100 1016.6
20260906064533 20 110 1.6 9.7 0.00 0.00 0.00 100 1017.1
20260906063056 20 120 4.8 11.3 0.00 0.00 0.00 100 1017.0
20260906061521 21 112 4.8 9.7 0.00 0.00 0.00 100 1017.2
20260906060046 21 122 1.6 11.3 0.00 0.00 0.00 100 1017.0
20260906054525 20 112 1.6 9.7 0.00 0.00 0.00 100 1016.9
20260906053104 21 118 3.2 9.7 0.00 0.00 0.00 100 1016.8
20260906051555 21 89 3.2 9.7 0.00 0.00 0.00 99 1016.7
20260906050017 21 118 1.6 6.4 0.00 0.00 0.00 99 1016.8
20260906044600 21 114 1.6 9.7 0.00 0.00 0.00 99 1016.7
20260906043021 21 149 0.0 9.7 0.00 0.00 0.00 98 1016.7
20260906041547 21 114 1.6 9.7 0.00 0.00 0.00 98 1016.8
20260906040100 22 116 4.8 6.4 0.00 0.00 0.00 98 1016.8
20260906034550 22 114 0.0 1.6 0.00 0.00 0.00 97 1016.6
20260906033015 22 114 0.0 6.4 0.00 0.00 0.00 97 1016.4
20260906031601 22 96 0.0 4.8 0.00 0.00 0.00 97 1016.5
20260906030036 22 96 0.0 12.9 0.00 0.00 0.00 97 1015.9
20260906024603 22 135 0.0 0.0 0.00 0.00 0.00 97 1016.1
20260906023039 22 136 0.0 0.0 0.00 0.00 0.00 97 1015.9
20260906021516 22 136 0.0 0.0 0.00 0.00 0.00 97 1015.5
20260906020105 22 136 0.0 0.0 0.00 0.00 0.00 97 1015.4
20260906014526 22 137 0.0 0.0 0.00 0.00 0.00 97 1015.2
20260906013100 23 136 0.0 0.0 0.00 0.00 0.00 96 1015.0
20260906011523 23 138 1.6 6.4 0.00 0.00 0.00 96 1014.8
20260906010103 23 134 0.0 3.2 0.00 0.00 0.00 95 1014.6
20260906004541 23 129 3.2 11.3 0.00 0.00 0.00 95 1014.5
20260906003002 23 127 3.2 11.3 0.00 0.00 0.00 94 1014.5
20260906001528 24 143 3.2 11.3 0.00 0.00 0.00 94 1014.3
20260906000104 24 135 3.2 12.9 0.00 0.00 0.00 93 1014.3
20260905234516 25 122 3.2 11.3 0.00 0.00 0.00 91 1014.4
20260905233044 25 135 3.2 14.5 0.00 0.00 0.00 90 1014.3
20260905231506 25 124 3.2 11.3 0.00 0.00 0.00 88 1014.5
20260905230028 25 102 6.4 19.3 0.00 0.51 0.00 88 1014.4
20260905224555 25 152 8.0 17.7 0.00 0.51 0.00 89 1014.1
20260905223012 26 145 4.8 19.3 0.00 0.51 0.00 88 1014.1
20260905221539 26 133 8.0 22.5 0.00 0.51 0.00 89 1014.0
20260905220010 25 116 8.0 17.7 0.00 0.51 0.00 89 1014.1
20260905214553 25 134 8.0 20.9 0.00 0.51 0.00 91 1014.2
20260905213027 25 115 6.4 17.7 0.00 0.51 0.00 92 1014.4
20260905211539 25 116 9.7 17.7 0.00 0.51 0.00 91 1014.5
20260905210022 25 124 3.2 12.9 0.00 0.51 0.00 92 1014.8
20260905204559 25 135 6.4 14.5 0.00 0.51 0.00 92 1014.6
20260905203020 25 85 6.4 17.7 0.00 0.51 0.00 93 1014.6
20260905201546 25 95 3.2 12.9 0.00 0.51 0.00 95 1014.7
20260905194503 25 88 4.8 16.1 0.00 0.51 0.00 93 1015.1
20260905193045 25 45 4.8 14.5 0.00 0.51 0.00 94 1015.0
20260905191522 25 75 1.6 12.9 0.00 0.51 0.00 93 1015.3
20260905190047 25 66 6.4 14.5 0.00 0.51 0.00 93 1015.3
20260905184511 25 79 8.0 17.7 0.00 0.51 0.00 92 1015.4
20260905183047 26 85 3.2 17.7 0.00 0.51 0.00 92 1015.1
20260905181509 26 86 3.2 16.1 0.00 0.51 0.00 92 1015.2
20260905180033 25 64 8.0 17.7 0.00 0.51 0.00 93 1015.2
20260905174606 25 95 6.4 16.1 0.00 0.51 0.00 94 1015.1
20260905173038 24 87 6.4 16.1 0.00 0.51 0.00 96 1015.3
20260905171635 24 56 6.4 14.5 0.00 0.51 0.00 96 1015.4
20260905170037 24 112 6.4 19.3 0.00 0.51 0.00 97 1015.4
20260905164514 24 98 6.4 16.1 0.00 0.51 0.00 96 1015.6
20260905163046 25 65 8.0 16.1 0.00 0.51 0.00 94 1015.6
20260905161548 25 72 8.0 16.1 0.00 0.51 0.00 94 1015.5
20260905160007 26 56 6.4 17.7 0.00 0.51 0.51 92 1015.5
20260905154608 26 83 6.4 14.5 0.00 0.51 0.51 92 1015.3
20260905153024 27 110 6.4 14.5 0.00 0.51 0.51 91 1015.2
20260905151550 27 110 3.2 12.9 0.00 0.51 0.51 92 1015.0
20260905150009 26 112 6.4 16.1 0.00 0.51 0.51 92 1014.8
20260905144537 26 116 4.8 11.3 0.00 0.51 0.51 93 1014.5
20260905143010 26 115 6.4 12.9 0.00 0.51 0.51 92 1014.6
20260905141550 25 103 6.4 12.9 0.00 0.51 0.51 93 1014.5
20260905140007 25 114 1.6 9.7 0.00 0.51 0.51 94 1014.2
20260905134530 24 107 4.8 9.7 0.00 0.51 0.51 95 1014.0
20260905133056 23 120 1.6 11.3 0.00 0.51 0.51 96 1013.9
20260905131532 23 95 3.2 9.7 0.00 0.51 0.51 96 1013.9
20260905130047 22 96 4.8 9.7 0.00 0.51 0.51 96 1013.5
20260905124555 22 82 1.6 6.4 0.00 0.51 0.51 97 1013.4
20260905123013 21 100 1.6 4.8 0.00 0.51 0.51 97 1013.1
20260905121541 21 100 0.0 4.8 0.00 0.51 0.51 98 1013.1
20260905120021 21 99 3.2 4.8 0.00 0.51 0.51 99 1013.1
20260905114605 21 91 1.6 6.4 0.00 0.51 0.51 98 1012.9
20260905113030 21 85 1.6 9.7 0.00 0.51 0.51 98 1012.8
20260905111507 21 95 0.0 0.0 0.00 0.51 0.51 98 1012.9
20260905110055 21 95 0.0 0.0 0.00 0.51 0.51 97 1012.8